Powrót do katalogu

STARLINK-35431

AktywnyŁącznośćVLEO
NORAD 66030·PAYLOAD·🇺🇸 United States

Wystrzelony Oct 16, 2025 z Cape Canaveral Space Force Station

Loading…

Następne Przeloty (najbliższe 24 godziny)

TLE

ŚwieżeSource: CelesTrak SupGP

Epoka: Sep 14, 2026, 21:05 UTC

1 66030C 25232AB  26257.87895833  .00007496  00000+0  22155-3 0  2572
2 66030  53.1585 301.9881 0001153  81.1958 350.4253 15.34373377    12

Śledź STARLINK-35431 w czasie rzeczywistym z AllMySat

Download on the App Store